[Iaude] MPEC G206: 2024 GY5 [a=1.77,e=0.59,i=5.7,H=27.8]

mpec at cfa.harvard.edu mpec at cfa.harvard.edu
Sun Apr 14 17:37:45 EDT 2024


M.P.E.C. 2024-G206                               Issued 2024 April 14, 21:36 UT

     The Minor Planet Electronic Circulars contain information on unusual
         minor planets, routine data on comets and natural satellites,
         and occasional editorial announcements.  They are published
    on behalf of Division F of the International Astronomical Union by the
          Minor Planet Center, Smithsonian Astrophysical Observatory,
                          Cambridge, MA 02138, U.S.A.
			  
             Prepared using the Tamkin Foundation Computer Network

                              MPC at CFA.HARVARD.EDU
            URL https://www.minorplanetcenter.net/    ISSN 1523-6714

                                    2024 GY5                                    


Observations:
     K24G05Y 1C2024 04 12.35322 13 21 25.49 +05 30 31.0          19.7 GVEG206G96
     K24G05Y 1C2024 04 12.35840 13 21 26.46 +05 23 56.1                VEG206G96
     K24G05Y 1C2024 04 12.36358 13 21 27.49 +05 17 24.5                VEG206G96
     K24G05Y*KB2024 04 13.84595 13 27 08.894-09 25 57.68         19.4 GXEG206L87
     K24G05Y KB2024 04 13.85270 13 27 08.726-09 27 53.17         19.7 GXEG206L87
     K24G05Y KB2024 04 13.85944 13 27 08.546-09 29 48.19               XEG206L87
     K24G05Y KB2024 04 14.07832913 27 08.74 -10 32 25.8          20.4 GXEG206I93
     K24G05Y KB2024 04 14.08193013 27 08.70 -10 33 16.1          19.5 GXEG206I93
     K24G05Y KB2024 04 14.08540913 27 08.64 -10 34 04.1          19.6 GXEG206I93
     K24G05Y KC2024 04 14.30700113 27 34.798-11 22 18.37         19.76GVEG206I52
     K24G05Y KC2024 04 14.30758813 27 34.830-11 22 25.61         20.16GVEG206I52
     K24G05Y KC2024 04 14.30877713 27 34.693-11 22 40.44         19.81GVEG206I52

Observer details:
G96 Mt. Lemmon Survey.  Observer H. Groeller.  Measurers B. Gray, D. Rankin,
    F. C. Shelly.  1.5-m reflector + 10K CCD.
I52 Steward Observatory, Mt. Lemmon Station.  Observer D. Rankin.  Measurers
    T. Beuden, V. F. Carvajal, D. Fay, J. B. Fazekas, D. C. Fuls, A. R. Gibbs,
    A. D. Grauer, H. Groeller, J. K. Hogan, R. A. Kowalski, S. M. Larson, G.
    J. Leonard, D. Rankin, R. L. Seaman, F. C. Shelly, K. W. Wierzchos.  1.0-m
    prime focus + CCD.
I93 St Pardon de Conques.  Observer F. Losse.  0.40-m f/3.7 reflector + CCD.
L87 Moonbase South Observatory, Hakos.  Observer G. Duszanowicz.  0.28-m f/1.9
    reflector + CMO.

Orbital elements:
2024 GY5                                                 Earth MOID = 0.0048 AU
Epoch 2024 Mar. 31.0 TT = JDT 2460400.5                 MPC                     
M  15.07541              (2000.0)            P               Q                  
n   0.41954720     Peri.  102.95207     -0.59969119     -0.79921283             
a   1.7671856      Node    24.03575     +0.69041348     -0.54223860             
e   0.5853372      Incl.    5.68748     +0.40459821     -0.25929934             
P   2.35           H   27.82          G   0.15           U   8                  
Residuals in seconds of arc
240412 G96  0.1+  0.6+    240413 L87  0.5-  0.3+    240414 I93  0.8-  0.9+
240412 G96  0.3-  0.2-    240413 L87  1.1-  0.2+    240414 I52  0.1-  0.1+
240412 G96  0.2+  0.4-    240414 I93  0.7+  0.7-    240414 I52  0.7+  0.1+
240413 L87  0.3+  0.1+    240414 I93  0.1+  0.1-    240414 I52  0.7-  0.2-

Ephemeris:
2024 GY5                 a,e,i = 1.77, 0.59, 6                   q = 0.7328
Date    TT    R. A. (2000) Decl.     Delta      r    Elong.  Phase     V
2024 03 15    01 24 15.9 +20 48 48   0.2608  0.7929    34.3   135.0    30.6
...
2024 03 30    01 31 54.8 +24 10 52   0.1119  0.8981    24.7   152.4    31.7
...
2024 04 07    01 34 52.1 +29 39 07   0.03870 0.9658    24.0   155.1    30.2
...
2024 04 13    13 24 53.0 -03 43 10   0.01675 1.0194   174.7     5.2    19.4
2024 04 14    13 27 09.5 -10 08 29   0.02549 1.0285   179.0     1.0    20.1
2024 04 15    13 28 18.2 -13 15 45   0.03441 1.0376   176.3     3.6    20.9
...
2024 04 21    13 30 32.3 -18 36 13   0.08906 1.0929   170.9     8.3    23.3
...
2024 04 29    13 31 56.0 -19 57 07   0.1647  1.1675   166.0    12.0    25.0
...
2024 05 14    13 36 36.3 -20 24 31   0.3197  1.3068   154.7    19.3    26.9

A. U. Tomatic                (C) Copyright 2024 MPC           M.P.E.C. 2024-G206





More information about the Iaude mailing list